Montreal, Quebec

4:14 AM EDT on July 26, 2017 (GMT -0400)
Montreal-Pierre Elliott Trudeau Int'l Airport

Weather History for CYUL - June, 2013

Change the Weather History Date:

Saturday, June 29, 2013

  Actual Average Record
Temperature  
Mean Temperature 64 °F -  
Max Temperature 71 °F 79 °F 88 °F (2012)
Min Temperature 56 °F 60 °F 50 °F (2007)
Degree Days  
Heating Degree Days 2    
Growing Degree Days 14 (Base 50)    
Moisture  
Dew Point 61 °F    
Average Humidity 85    
Maximum Humidity 100    
Minimum Humidity 69    
Precipitation  
Precipitation 0.00 in 0.11 in - ()
Sea Level Pressure  
Sea Level Pressure 29.55 in    
Wind  
Wind Speed 4 mph ()    
Max Wind Speed 9 mph    
Max Gust Speed -    
Visibility 12.9 miles    
Events Rain    
Averages and records for this station are not official NWS values.
T = Trace of Precipitation, MM = Missing Value Source: Averaged Metar Reports

Daily Weather History Graph

Daily Weather History Graph

Search for Another Location

Airport or City:

Trip Planner

Search our weather history database for the weather conditions in past years. The results will help you decide how hot, cold, wet, or windy it might be!

Date:

Astronomy

Jun. 29, 2013 Rise Set
Actual Time 5:09 AM EDT 8:47 PM EDT
Civil Twilight 4:31 AM EDT 9:25 PM EDT
Nautical Twilight 3:41 AM EDT 10:15 PM EDT
Astronomical Twilight 2:33 AM EDT 11:22 PM EDT
Moon No Moon Rise 12:40 PM EDT (6/29)
Length of Visible Light 16h 53m
Length of Day
15h 38m
Waning Gibbous, 56% of the Moon is Illuminated
Jun 29
Waning Gibbous
Jun 30
Last Quarter
Jul 8
New
Jul 15
First Quarter
Jul 22
Full

Hourly Weather History & Observations

Time (EDT) Temp. Dew Point Humidity Pressure Visibility Wind Dir Wind Speed Gust Speed Precip Events Conditions
12:00 AM 60.8 °F 59.0 °F 94% 29.50 in 10.0 mi SSW 6.9 mph - N/A   Overcast
1:00 AM 59.0 °F 59.0 °F 100% 29.51 in 10.0 mi WSW 4.6 mph - N/A   Overcast
1:38 AM 59.0 °F 59.0 °F 100% 29.51 in 7.0 mi SW 2.3 mph - N/A   Light Drizzle
2:00 AM 60 °F 59 °F 94% 29.51 in 10 mi South 5.8 mph - - Rain Light Drizzle
2:00 AM 60.8 °F 59.0 °F 94% 29.51 in 10.0 mi South 6.9 mph - N/A   Mostly Cloudy
2:40 AM 60.8 °F 59.0 °F 94% 29.51 in 6.0 mi West 4.6 mph - N/A   Light Drizzle
3:00 AM 60.8 °F 59.0 °F 94% 29.51 in 8.0 mi West 4.6 mph - N/A   Light Drizzle
4:00 AM 60.8 °F 59.0 °F 94% 29.51 in 10.0 mi WSW 4.6 mph - N/A   Mostly Cloudy
5:00 AM 60.8 °F 59.0 °F 94% 29.52 in 10.0 mi SSW 2.3 mph - N/A   Overcast
6:00 AM 60.8 °F 59.0 °F 94% 29.53 in 12.0 mi SSE 5.8 mph - N/A   Overcast
7:00 AM 60.8 °F 59.0 °F 94% 29.55 in 30.0 mi South 6.9 mph - N/A   Overcast
8:00 AM 63 °F 60 °F 86% 29.55 in 15 mi Calm Calm - -   Partly Cloudy
8:00 AM 62.6 °F 60.8 °F 94% 29.55 in 15.0 mi SSW 9.2 mph - N/A   Overcast
9:00 AM 62.6 °F 60.8 °F 94% 29.57 in 30.0 mi SSW 5.8 mph - N/A   Overcast
10:00 AM 64.4 °F 60.8 °F 88% 29.55 in 30.0 mi SSW 3.5 mph - N/A   Mostly Cloudy
11:00 AM 66.2 °F 60.8 °F 83% 29.55 in 30.0 mi Variable 2.3 mph - N/A   Mostly Cloudy
12:00 PM 68.0 °F 59.0 °F 73% 29.55 in 15.0 mi SSE 4.6 mph - N/A   Mostly Cloudy
1:00 PM 68.0 °F 60.8 °F 78% 29.55 in 15.0 mi South 3.5 mph - N/A Rain Light Rain Showers
1:47 PM 68.0 °F 62.6 °F 83% 29.55 in 15.0 mi South 3.5 mph - N/A   Overcast
2:00 PM 68 °F 61 °F 72% 29.55 in 15 mi SE 3.5 mph - - Rain Light Rain Showers
2:00 PM 68.0 °F 60.8 °F 78% 29.55 in 15.0 mi SE 3.5 mph - N/A   Overcast
3:00 PM 69.8 °F 62.6 °F 78% 29.55 in 15.0 mi Variable 2.3 mph - N/A   Mostly Cloudy
4:00 PM 69.8 °F 62.6 °F 78% 29.55 in 15.0 mi South 3.5 mph - N/A   Mostly Cloudy
5:00 PM 69.8 °F 62.6 °F 78% 29.57 in 15.0 mi SW 5.8 mph - N/A   Mostly Cloudy
6:00 PM 71.6 °F 60.8 °F 69% 29.57 in 15.0 mi South 4.6 mph - N/A   Mostly Cloudy
7:00 PM 69.8 °F 62.6 °F 78% 29.58 in 15.0 mi South 3.5 mph - N/A   Partly Cloudy
8:00 PM 69 °F 62 °F 71% 29.60 in 15 mi SSW 5.8 mph - -   Scattered Clouds
8:00 PM 69.8 °F 60.8 °F 73% 29.60 in 15.0 mi SSW 5.8 mph - N/A   Partly Cloudy
9:00 PM 69.8 °F 62.6 °F 78% 29.62 in 15.0 mi SSW 6.9 mph - N/A   Mostly Cloudy
10:00 PM 68.0 °F 62.6 °F 83% 29.64 in 15.0 mi South 6.9 mph - N/A   Mostly Cloudy
11:00 PM 66.2 °F 62.6 °F 88% 29.65 in 15.0 mi WSW 5.8 mph - N/A   Mostly Cloudy